296  
ASUS45 KPSR 260710  
RWRAZ  
 
ARIZONA HOURLY REGIONAL WEATHER ROUNDUP  
NATIONAL WEATHER SERVICE PHOENIX AZ  
1200 AM MST THU APR 26 2018  
 
NOTE: FAIR INDICATES FEW OR NO CLOUDS BELOW 12,000 FEET WITH NO  
SIGNIFICANT WEATHER AND/OR S TO VISIBILITY
.  
 
AZZ001>003-036-260800-  
NORTHWEST ARIZONA  
 
CITY SKY/WX TMP DP RH WIND PRES REMARKS
 
BULLHEAD CITY CLEAR 84 19 9 CALM 29.82S  
KINGMAN CLEAR 63 19 18 CALM 30.01F  

 
 
AZZ004>008-015-016-018-260800-  
NORTH CENTRAL ARIZONA  
 
CITY SKY/WX TMP DP RH WIND PRES REMARKS
 
GRAND CANYON CLEAR 38 14 37 CALM 30.21S HAZE  
WILLIAMS CLEAR 50 14 23 S8 30.18S  
PRESCOTT PTCLDY 63 26 24 SW6 30.11S  
FLAGSTAFF CLEAR 39 17 41 CALM 30.23F  
PAYSON PTCLDY 61 18 18 CALM 30.12S  
PAGE CLEAR 63 22 20 W5 30.05S  

 
 
AZZ009>014-017-260800-  
NORTHEAST ARIZONA  
 
CITY SKY/WX TMP DP RH WIND PRES REMARKS
 
WINSLOW CLEAR 55 13 18 E6 30.12R  
SAINT JOHNS CLEAR 52 17 25 S7 30.14S  
WINDOW ROCK CLEAR 38 1 21 CALM 30.21S  
SHOW LOW PTCLDY 48 12 23 S3 30.21S  

 
 
AZZ540-542>544-546-548-260800-  
GREATER PHOENIX AREA  
 
CITY SKY/WX TMP DP RH WIND PRES REMARKS
 
PHOENIX MOCLDY 82 29 14 W7 29.84S  
BUCKEYE CLEAR 77 25 14 NW5 29.86S  
LUKE AFB PTCLDY 78 33 19 E5 29.83S  
DEER VALLEY PTCLDY 75 23 14 CALM 29.87S  
SCOTTSDALE PTCLDY 81 35 19 N3 29.89R  
MESA-GATEWAY PTCLDY 72 18 13 SE5 29.88S  

 
 
AZZ539-553-260800-  
SOUTHWEST MARICOPA COUNTY AND PINAL COUNTY  
 
CITY SKY/WX TMP DP RH WIND PRES REMARKS
 
CASA GRANDE CLEAR 73 21 14 W6 29.89S  
GILA BEND FAIR 79 21 11 SW8 29.85S  

 
 
AZZ503-504-507>509-260800-  
SOUTHEAST ARIZONA  
 
CITY SKY/WX TMP DP RH WIND PRES REMARKS
 
TUCSON PTCLDY 71 18 13 SE3 29.99S  
DAVIS-MONTHAN PTCLDY 70 20 15 S7 29.97  
NOGALES CLEAR 64 31 28 E7 30.07S  
SIERRA VISTA PTCLDY 70 26 19 W12 30.11S  
DOUGLAS PTCLDY 63 17 17 N12 30.06S  
SAFFORD PTCLDY 73 16 11 NW12 29.95S  

 
 
AZZ532-260800-  
SOUTHWEST ARIZONA  
 
CITY SKY/WX TMP DP RH WIND PRES REMARKS
 
YUMA PTCLDY 79 44 28 SW7 29.83F  

 
 
CAZ041-043-047-048-061-525>527-560>570-260800-  
SOUTHERN CALIFORNIA  
 
CITY SKY/WX TMP DP RH WIND PRES REMARKS
 
DOWNTOWN L.A. CLOUDY 57 52 83 CALM 30.04S  
L.A. AIRPORT CLOUDY 57 52 83 W10 30.05S  
SAN DIEGO MOCLDY 59 52 77 NW7 30.07S  
BURBANK CLEAR 57 54 89 E6 30.03S  
ONTARIO PTCLDY 58 47 66 W5 30.03S  
RIVERSIDE CLEAR 60 48 64 W3 30.03S  
PALM SPRINGS CLEAR 81 35 19 W6 29.86F  
EL CENTRO NAS PTCLDY 80 26 13 W17 29.85S  
IMPERIAL PTCLDY 79 32 18 W14 29.82F  
BLYTHE PTCLDY 77 40 26 E8 29.82F  
NEEDLES CLEAR 90 19 7 SW8 29.84S  

 
 
NVZ020-UTZ003-260800-  
SOUTHERN NEVADA-UTAH  
 
CITY SKY/WX TMP DP RH WIND PRES REMARKS
 
LAS VEGAS PTCLDY 79 25 13 NW5 29.90F  
SALT LAKE CITY PTCLDY 54 38 54 W3 30.13R  

 
 
NMZ009-TXZ055-260800-  
NEW MEXICO-WEST TEXAS  
 
CITY SKY/WX TMP DP RH WIND PRES REMARKS
 
ALBUQUERQUE CLEAR 58 30 34 SW6 30.10R  
EL PASO PTCLDY 60 40 47 S8 30.10S  

 
 
   
.......................KEY.....................
 
 
SKY/WX - SKY CONDITION/WEATHER  
TMP - TEMPERATURE IN FAHRENHEIT  
DP - DEW POINT IN FAHRENHEIT  
RH - RELATIVE HUMIDITY IN PERCENT  
WIND - DIRECTION AND SPEED IN MILES PER HOUR (MPH)  
VRB - VARIABLE WIND DIRECTION  
PRES - MEAN SEA LEVEL PRESSURE IN INCHES OF MERCURY  
F - FALLING PRESSURE R - RISING PRESSURE  
S - STEADY PRESSURE  
VSB - VISIBILITY IN MILES  
HX - HEAT INDEX IN FAHRENHEIT  
WCI - WIND CHILL INDEX IN FAHRENHEIT  
TC - TEMPERATURE IN CELSIUS WHICH IS ALSO KNOWN AS  
TEMPERATURE IN CENTIGRADE  
AFB - AIR FORCE BASE  
LUKE AFB IS LUKE AIR FORCE BASE  
DAVIS-MONTHAN IS DAVIS-MONTHAN AIR FORCE BASE  
NAS - NAVAL AIR STATION  
EL CENTRO NAS IS EL CENTRO NAVAL AIR STATION  
N/A - NOT AVAILABLE  
 
 
 
CLICK HERE TO GO TO PREVIOUS BULLETINS.

The Nexlab AZ Page Main Text Page